This is the latest recevied weather packets stored in our database for station/object N5JXS. If no packets are shown the sender has not sent any weather packets the latest 10 day(s).
| Time | Temp. | Humidity | Pressure | Rain* | Wind** | Luminosity | Snow |
|---|---|---|---|---|---|---|---|
| 1788630302 | 27.78° C | 28% | 1026.6 hPa | 0 mm | - | 638 W/m² | - |
| 1788629997 | 27.78° C | 28% | 1026.8 hPa | 0 mm | - | 642 W/m² | - |
| 1788629693 | 27.78° C | 28% | 1026.7 hPa | 0 mm | - | 636 W/m² | - |
| 1788629389 | 27.78° C | 28% | 1026.8 hPa | 0 mm | - | 620 W/m² | - |
| 1788629087 | 27.78° C | 28% | 1026.7 hPa | 0 mm | - | 643 W/m² | - |
| 1788628783 | 27.22° C | 28% | 1026.7 hPa | 0 mm | - | 636 W/m² | - |
| 1788628479 | 26.67° C | 29% | 1026.7 hPa | 0 mm | - | 632 W/m² | - |
| 1788628175 | 26.67° C | 30% | 1026.6 hPa | 0 mm | - | 602 W/m² | - |
| 1788627871 | 26.67° C | 29% | 1026.7 hPa | 0 mm | - | 550 W/m² | - |
| 1788627571 | 26.11° C | 30% | 1026.8 hPa | 0 mm | - | 573 W/m² | - |
| 1788627266 | 26.11° C | 30% | 1026.8 hPa | 0 mm | - | 479 W/m² | - |
| 1788626961 | 26.67° C | 30% | 1027 hPa | 0 mm | - | 439 W/m² | - |
| 1788626660 | 26.11° C | 31% | 1026.8 hPa | 0 mm | - | 586 W/m² | - |
| 1788626355 | 26.11° C | 30% | 1026.8 hPa | 0 mm | - | 593 W/m² | - |
| 1788626052 | 26.11° C | 31% | 1027 hPa | 0 mm | - | 583 W/m² | - |
| 1788625748 | 25.56° C | 32% | 1026.7 hPa | 0 mm | - | 560 W/m² | - |
| 1788625443 | 25.56° C | 32% | 1026.7 hPa | 0 mm | - | 530 W/m² | - |
| 1788625137 | 25° C | 33% | 1026.7 hPa | 0 mm | - | 523 W/m² | - |
| 1788624836 | 25° C | 33% | 1026.6 hPa | 0 mm | - | 225 W/m² | - |
| 1788624535 | 25° C | 32% | 1026.5 hPa | 0 mm | - | 207 W/m² | - |
| 1788624229 | 25° C | 32% | 1026.6 hPa | 0 mm | - | 313 W/m² | - |
| 1788623924 | 25° C | 33% | 1026.3 hPa | 0 mm | - | 176 W/m² | - |
| 1788623623 | 25° C | 32% | 1026.3 hPa | 0 mm | - | 78 W/m² | - |
| 1788623317 | 25° C | 33% | 1026.1 hPa | 0 mm | - | 104 W/m² | - |
| 1788623012 | 24.44° C | 33% | 1026.5 hPa | 0 mm | - | 106 W/m² | - |
* Rain latest hour (hover to see other rain measurements)
** Current wind speed in m/s (hover to see current wind gust speed)